{"data":{"norad_id":59534,"intl_designator":"2024-074A","name":"STARLINK-31734","alt_names":[],"object_type":"PAYLOAD","status":"ACTIVE","operator":null,"country":"US","launch_date":"2024-04-18","launch_site_code":"AFETR","launch_vehicle":null,"mission":null,"orbit_class":"UNKNOWN","rcs_meters":null,"size_class":null,"mass_kg":null,"dimensions":null,"purposes":["comms"],"wikipedia_slug":null,"has_3d_model":false,"image_url":null,"decayed_at":null,"tle_current":{"epoch":"2026-05-25T00:25:32.168352Z","epoch_age_seconds":69460,"freshness":"FRESH","line1":"1 59534U 24074A   26145.01773343  .00002163  00000+0  88116-4 0  9998","line2":"2 59534  42.9986 261.5662 0000730 308.6481  51.4306 15.27574247117815","mean_motion":15.27574247,"eccentricity":7.3e-5,"inclination_deg":42.9986,"raan_deg":261.5662,"arg_perigee_deg":308.6481,"mean_anomaly_deg":51.4306,"bstar":8.8116e-5,"rev_number":11781,"period_min":94.267103731816,"perigee_km":482.56545480279,"apogee_km":483.5671904879,"semimajor_km":6861.2033226453,"source":"CELESTRAK","updated_at":"2026-05-25T13:38:18.978169Z"}}}